TimeMDT,TemperatureF,Dew PointF,Humidity,Sea Level PressureIn,VisibilityMPH,Wind Direction,Wind SpeedMPH,Gust SpeedMPH,PrecipitationIn,Events,Conditions,WindDirDegrees,DateUTC
12:16 AM,41.0,5.0,23,30.17,10.0,SSW,12.7,25.3,N/A,,Clear,210,2012-10-21 06:16:00
12:36 AM,41.0,3.2,21,30.17,10.0,SSW,13.8,23.0,N/A,,Clear,210,2012-10-21 06:36:00
12:56 AM,41.0,3.2,21,30.17,10.0,SSW,17.3,24.2,N/A,,Clear,210,2012-10-21 06:56:00
1:16 AM,41.0,3.2,21,30.18,10.0,SSW,12.7,19.6,N/A,,Clear,210,2012-10-21 07:16:00
1:36 AM,41.0,3.2,21,30.17,10.0,SW,12.7,20.7,N/A,,Clear,220,2012-10-21 07:36:00
1:56 AM,41.0,3.2,21,30.18,10.0,SW,13.8,19.6,N/A,,Clear,220,2012-10-21 07:56:00
2:16 AM,41.0,3.2,21,30.18,10.0,SW,16.1,21.9,N/A,,Clear,230,2012-10-21 08:16:00
2:36 AM,37.4,5.0,26,30.19,10.0,WSW,12.7,-,N/A,,Clear,240,2012-10-21 08:36:00
2:56 AM,37.4,5.0,26,30.19,10.0,SW,12.7,18.4,N/A,,Clear,230,2012-10-21 08:56:00
3:16 AM,37.4,5.0,26,30.19,10.0,WSW,8.1,16.1,N/A,,Clear,240,2012-10-21 09:16:00
3:36 AM,37.4,5.0,26,30.18,10.0,SW,8.1,-,N/A,,Clear,220,2012-10-21 09:36:00
3:56 AM,37.4,6.8,28,30.18,10.0,SW,11.5,-,N/A,,Clear,230,2012-10-21 09:56:00
4:16 AM,37.4,6.8,28,30.19,10.0,SW,11.5,19.6,N/A,,Clear,220,2012-10-21 10:16:00
4:36 AM,37.4,6.8,28,30.19,10.0,SSW,10.4,17.3,N/A,,Clear,200,2012-10-21 10:36:00
4:56 AM,37.4,8.6,30,30.19,10.0,SSW,10.4,-,N/A,,Clear,200,2012-10-21 10:56:00
5:16 AM,37.4,8.6,30,30.19,10.0,SW,8.1,16.1,N/A,,Clear,230,2012-10-21 11:16:00
5:36 AM,37.4,10.4,33,30.19,10.0,SW,10.4,18.4,N/A,,Clear,220,2012-10-21 11:36:00
5:56 AM,37.4,10.4,33,30.19,10.0,SSW,11.5,18.4,N/A,,Clear,200,2012-10-21 11:56:00
6:16 AM,37.4,10.4,33,30.19,10.0,South,13.8,-,N/A,,Clear,190,2012-10-21 12:16:00
6:36 AM,37.4,10.4,33,30.19,10.0,South,16.1,-,N/A,,Clear,180,2012-10-21 12:36:00
6:56 AM,37.4,10.4,33,30.19,10.0,South,17.3,-,N/A,,Clear,180,2012-10-21 12:56:00
7:16 AM,37.4,10.4,33,30.19,10.0,South,17.3,-,N/A,,Clear,180,2012-10-21 13:16:00
7:36 AM,37.4,10.4,33,30.20,10.0,South,11.5,18.4,N/A,,Clear,190,2012-10-21 13:36:00
7:56 AM,37.4,10.4,33,30.20,10.0,South,12.7,17.3,N/A,,Clear,190,2012-10-21 13:56:00
8:16 AM,37.4,10.4,33,30.20,10.0,South,13.8,17.3,N/A,,Clear,180,2012-10-21 14:16:00
8:36 AM,41.0,10.4,29,30.21,10.0,SSW,9.2,-,N/A,,Clear,200,2012-10-21 14:36:00
8:56 AM,41.0,10.4,29,30.21,10.0,South,9.2,-,N/A,,Clear,170,2012-10-21 14:56:00
9:16 AM,42.8,10.4,27,30.22,10.0,South,10.4,17.3,N/A,,Clear,180,2012-10-21 15:16:00
9:36 AM,44.6,10.4,25,30.22,10.0,South,15.0,20.7,N/A,,Clear,180,2012-10-21 15:36:00
9:56 AM,44.6,12.2,27,30.22,10.0,South,10.4,18.4,N/A,,Clear,190,2012-10-21 15:56:00
10:16 AM,44.6,12.2,27,30.23,10.0,South,16.1,21.9,N/A,,Clear,180,2012-10-21 16:16:00
10:36 AM,44.6,12.2,27,30.22,10.0,South,16.1,23.0,N/A,,Clear,180,2012-10-21 16:36:00
10:56 AM,44.6,12.2,27,30.23,10.0,SSW,5.8,19.6,N/A,,Clear,210,2012-10-21 16:56:00
11:16 AM,44.6,12.2,27,30.22,10.0,SSW,6.9,-,N/A,,Clear,210,2012-10-21 17:16:00
11:36 AM,46.4,14.0,27,30.22,10.0,SSW,6.9,16.1,N/A,,Clear,200,2012-10-21 17:36:00
11:56 AM,44.6,12.2,27,30.22,10.0,WSW,4.6,17.3,N/A,,Clear,250,2012-10-21 17:56:00
12:16 PM,46.4,12.2,25,30.21,10.0,SW,9.2,18.4,N/A,,Clear,230,2012-10-21 18:16:00
12:36 PM,46.4,14.0,27,30.20,10.0,South,10.4,-,N/A,,Clear,180,2012-10-21 18:36:00
12:56 PM,50.0,15.8,26,30.20,10.0,SSW,6.9,16.1,N/A,,Clear,210,2012-10-21 18:56:00
1:16 PM,53.6,19.4,26,30.19,10.0,SSE,13.8,21.9,N/A,,Clear,160,2012-10-21 19:16:00
1:36 PM,51.8,17.6,26,30.19,10.0,SSW,12.7,20.7,N/A,,Clear,200,2012-10-21 19:36:00
1:56 PM,51.8,17.6,26,30.18,10.0,South,9.2,-,N/A,,Clear,180,2012-10-21 19:56:00
2:16 PM,53.6,17.6,24,30.18,10.0,WSW,5.8,20.7,N/A,,Clear,250,2012-10-21 20:16:00
2:36 PM,53.6,17.6,24,30.18,10.0,South,10.4,16.1,N/A,,Clear,190,2012-10-21 20:36:00
2:56 PM,51.8,15.8,24,30.18,10.0,SW,4.6,-,N/A,,Clear,230,2012-10-21 20:56:00
3:16 PM,53.6,17.6,24,30.18,10.0,WSW,6.9,-,N/A,,Clear,240,2012-10-21 21:16:00
3:36 PM,51.8,14.0,22,30.18,10.0,West,15.0,21.9,N/A,,Clear,260,2012-10-21 21:36:00
3:56 PM,51.8,14.0,22,30.18,10.0,WSW,8.1,18.4,N/A,,Clear,240,2012-10-21 21:56:00
4:16 PM,51.8,14.0,22,30.19,10.0,SW,6.9,-,N/A,,Clear,220,2012-10-21 22:16:00
4:36 PM,51.8,15.8,24,30.18,10.0,WSW,10.4,19.6,N/A,,Clear,250,2012-10-21 22:36:00
4:56 PM,50.0,14.0,24,30.18,10.0,West,20.7,-,N/A,,Clear,270,2012-10-21 22:56:00
5:16 PM,48.2,14.0,25,30.19,10.0,West,13.8,19.6,N/A,,Clear,260,2012-10-21 23:16:00
5:36 PM,46.4,14.0,27,30.19,10.0,West,18.4,-,N/A,,Clear,270,2012-10-21 23:36:00
5:56 PM,44.6,17.6,34,30.19,10.0,WSW,11.5,18.4,N/A,,Clear,240,2012-10-21 23:56:00
6:16 PM,44.6,15.8,31,30.20,10.0,WSW,12.7,19.6,N/A,,Clear,250,2012-10-22 00:16:00
6:36 PM,42.8,15.8,34,30.20,10.0,West,17.3,-,N/A,,Clear,260,2012-10-22 00:36:00
6:56 PM,44.6,14.0,29,30.21,10.0,SSW,6.9,-,N/A,,Clear,210,2012-10-22 00:56:00
7:16 PM,44.6,12.2,27,30.21,10.0,South,6.9,-,N/A,,Clear,190,2012-10-22 01:16:00
7:36 PM,44.6,12.2,27,30.22,10.0,West,8.1,-,N/A,,Clear,270,2012-10-22 01:36:00
7:56 PM,41.0,14.0,33,30.22,10.0,West,13.8,-,N/A,,Clear,270,2012-10-22 01:56:00
8:16 PM,41.0,12.2,31,30.23,10.0,West,10.4,-,N/A,,Clear,260,2012-10-22 02:16:00
8:36 PM,41.0,12.2,31,30.23,10.0,West,12.7,-,N/A,,Clear,270,2012-10-22 02:36:00
8:56 PM,41.0,14.0,33,30.22,10.0,West,12.7,-,N/A,,Clear,270,2012-10-22 02:56:00
9:16 PM,39.2,12.2,33,30.22,10.0,West,6.9,-,N/A,,Clear,260,2012-10-22 03:16:00
9:36 PM,41.0,12.2,31,30.23,10.0,WSW,3.5,-,N/A,,Clear,250,2012-10-22 03:36:00
9:56 PM,39.2,12.2,33,30.23,10.0,West,9.2,-,N/A,,Clear,270,2012-10-22 03:56:00
10:16 PM,41.0,14.0,33,30.23,10.0,South,9.2,-,N/A,,Clear,190,2012-10-22 04:16:00
10:36 PM,37.4,14.0,38,30.23,10.0,West,6.9,-,N/A,,Clear,260,2012-10-22 04:36:00
10:56 PM,37.4,14.0,38,30.22,10.0,SW,3.5,-,N/A,,Clear,230,2012-10-22 04:56:00
11:16 PM,37.4,14.0,38,30.22,10.0,South,9.2,-,N/A,,Clear,190,2012-10-22 05:16:00
11:56 PM,39.2,15.8,39,30.22,10.0,South,17.3,-,N/A,,Clear,170,2012-10-22 05:56:00